Weather History for KCCY - February, 2013

Change the Weather History Date:

Monday, February 11, 2013

  Actual Average Record
Temperature  
Mean Temperature 26 °F -  
Max Temperature 32 °F 27 °F 57 °F (1977)
Min Temperature 21 °F 9 °F -20 °F (2014)
Degree Days  
Heating Degree Days 38    
Moisture  
Dew Point 20 °F    
Average Humidity 80    
Maximum Humidity 93    
Minimum Humidity 69    
Precipitation  
Precipitation 0.01 in - - ()
Sea Level Pressure  
Sea Level Pressure 29.81 in    
Wind  
Wind Speed 24 mph (WNW)    
Max Wind Speed 32 mph    
Max Gust Speed 48 mph    
Visibility 6 miles    
Events Rain , Snow    
Averages and records for this station are not official NWS values.
T = Trace of Precipitation, MM = Missing Value Source: NWS Daily Summary

Daily Weather History Graph

Daily Weather History Graph

Search for Another Location

Airport or City:

Trip Planner

Search our weather history database for the weather conditions in past years. The results will help you decide how hot, cold, wet, or windy it might be!

Date:

Astronomy

Feb. 11, 2013 Rise Set
Actual Time 7:13 AM CST 5:36 PM CST
Civil Twilight 6:43 AM CST 6:06 PM CST
Nautical Twilight 6:10 AM CST 6:39 PM CST
Astronomical Twilight 5:37 AM CST 7:12 PM CST
Moon 7:34 AM CST (2/11) 7:38 PM CST (2/11)
Length of Visible Light 11h 22m
Length of Day
10h 23m
Waxing Crescent, 3% of the Moon is Illuminated
Feb 11
Waxing Crescent
Feb 17
First Quarter
Feb 25
Full
Mar 4
Last Quarter
Mar 11
New

Hourly Weather History & Observations

Time (CST) Temp. Windchill Dew Point Humidity Pressure Visibility Wind Dir Wind Speed Gust Speed Precip Events Conditions
12:15 AM 32.0 °F 19.2 °F 28.4 °F 87% 29.37 in 3.0 mi West 23.0 mph 36.8 mph N/A Snow Light Snow
12:35 AM 30.2 °F 16.8 °F 28.4 °F 93% 29.39 in 1.8 mi West 23.0 mph 33.4 mph N/A Snow Light Snow
12:55 AM 30.2 °F 16.5 °F 28.4 °F 93% 29.40 in 1.8 mi West 24.2 mph 34.5 mph N/A Snow Light Snow
1:15 AM 30.2 °F 16.5 °F 28.4 °F 93% 29.41 in 0.8 mi West 24.2 mph 38.0 mph N/A Snow Light Snow
1:35 AM 30.2 °F 16.2 °F 28.4 °F 93% 29.42 in 0.5 mi West 25.3 mph 34.5 mph N/A Snow Light Snow
1:55 AM 28.4 °F 13.5 °F 26.6 °F 93% 29.44 in 0.8 mi West 26.5 mph 36.8 mph N/A Snow Light Snow
2:15 AM 28.4 °F 14.1 °F 26.6 °F 93% 29.46 in 0.8 mi West 24.2 mph 33.4 mph N/A Snow Light Snow
2:35 AM 28.4 °F 14.1 °F 26.6 °F 93% 29.47 in 1.5 mi West 24.2 mph 29.9 mph N/A   Overcast
2:55 AM 28.4 °F 14.1 °F 26.6 °F 93% 29.48 in 2.0 mi West 24.2 mph 32.2 mph N/A Rain Light Freezing Rain
3:15 AM 28.4 °F 14.1 °F 24.8 °F 86% 29.49 in 3.0 mi West 24.2 mph 35.7 mph N/A Rain Light Freezing Rain
3:35 AM 30.2 °F 16.2 °F 24.8 °F 80% 29.50 in 9.0 mi West 25.3 mph 38.0 mph N/A   Light Freezing Rain
3:55 AM 28.4 °F 13.8 °F 24.8 °F 86% 29.52 in 9.0 mi West 25.3 mph 38.0 mph 0.01 in   Light Freezing Rain
4:15 AM 28.4 °F 14.1 °F 24.8 °F 86% 29.53 in 6.0 mi West 24.2 mph 35.7 mph N/A   Light Freezing Rain
4:35 AM 28.4 °F 13.3 °F 24.8 °F 86% 29.55 in 3.0 mi West 27.6 mph 34.5 mph N/A   Overcast
4:55 AM 28.4 °F 13.0 °F 24.8 °F 86% 29.56 in 1.2 mi West 28.8 mph 38.0 mph N/A   Overcast
5:15 AM 28.4 °F 12.7 °F 24.8 °F 86% 29.58 in 1.8 mi West 29.9 mph 36.8 mph N/A Snow Light Snow
5:35 AM 28.4 °F 14.1 °F 24.8 °F 86% 29.59 in 3.0 mi West 24.2 mph 36.8 mph N/A Snow Light Snow
6:15 AM 26.6 °F 11.4 °F 24.8 °F 93% 29.63 in 1.2 mi West 25.3 mph 34.5 mph N/A   Overcast
6:35 AM 26.6 °F 11.1 °F 23.0 °F 86% 29.65 in 2.0 mi WNW 26.5 mph 38.0 mph N/A   Overcast
6:55 AM 26.6 °F 10.0 °F 23.0 °F 86% 29.66 in 2.5 mi WNW 31.1 mph 38.0 mph N/A   Light Freezing Rain
7:15 AM 26.6 °F 10.8 °F 23.0 °F 86% 29.68 in 1.5 mi WNW 27.6 mph 39.1 mph N/A   Light Freezing Rain
7:35 AM 26.6 °F 11.1 °F 23.0 °F 86% 29.70 in 1.8 mi WNW 26.5 mph 35.7 mph N/A   Light Freezing Rain
7:55 AM 26.6 °F 11.1 °F 23.0 °F 86% 29.71 in 3.0 mi WNW 26.5 mph 32.2 mph N/A   Light Freezing Rain
8:15 AM 26.6 °F 9.8 °F 21.2 °F 80% 29.73 in 1.5 mi WNW 32.2 mph 42.6 mph N/A   Light Freezing Rain
8:35 AM 24.8 °F 8.1 °F 21.2 °F 86% 29.75 in 1.2 mi WNW 28.8 mph 48.3 mph N/A   Light Freezing Rain
8:55 AM 24.8 °F 8.7 °F 21.2 °F 86% 29.77 in 3.0 mi WNW 26.5 mph 40.3 mph N/A   Light Freezing Rain
9:15 AM 24.8 °F 7.9 °F 19.4 °F 80% 29.78 in 2.5 mi WNW 29.9 mph 35.7 mph N/A   Light Freezing Rain
9:35 AM 24.8 °F 7.3 °F 19.4 °F 80% 29.79 in 2.5 mi WNW 32.2 mph 41.4 mph N/A   Light Freezing Rain
9:55 AM 24.8 °F 8.1 °F 19.4 °F 80% 29.81 in 2.5 mi WNW 28.8 mph 41.4 mph N/A   Light Freezing Rain
10:15 AM 24.8 °F 7.9 °F 19.4 °F 80% 29.81 in 3.0 mi WNW 29.9 mph 40.3 mph N/A   Light Freezing Rain
10:35 AM 24.8 °F 9.6 °F 21.2 °F 86% 29.82 in 4.0 mi West 23.0 mph 35.7 mph N/A   Light Freezing Rain
10:55 AM 26.6 °F 11.4 °F 19.4 °F 74% 29.84 in 8.0 mi WNW 25.3 mph 33.4 mph N/A   Light Freezing Rain
11:15 AM 26.6 °F 10.6 °F 19.4 °F 74% 29.85 in 6.0 mi WNW 28.8 mph 38.0 mph N/A   Light Freezing Rain
11:35 AM 26.6 °F 10.3 °F 19.4 °F 74% 29.86 in 7.0 mi WNW 29.9 mph 39.1 mph N/A   Light Freezing Rain
11:55 AM 26.6 °F 10.3 °F 19.4 °F 74% 29.87 in 9.0 mi WNW 29.9 mph 36.8 mph N/A   Light Freezing Rain
12:15 PM 26.6 °F 10.0 °F 19.4 °F 74% 29.87 in 8.0 mi WNW 31.1 mph 42.6 mph N/A   Light Freezing Rain
12:35 PM 26.6 °F 11.7 °F 19.4 °F 74% 29.88 in 4.0 mi WNW 24.2 mph 36.8 mph N/A   Light Freezing Rain
12:55 PM 26.6 °F 11.1 °F 19.4 °F 74% 29.89 in 7.0 mi WNW 26.5 mph 34.5 mph N/A   Light Freezing Rain
1:15 PM 26.6 °F 10.8 °F 19.4 °F 74% 29.90 in 7.0 mi WNW 27.6 mph 36.8 mph N/A   Light Freezing Rain
1:35 PM 26.6 °F 10.6 °F 19.4 °F 74% 29.90 in 5.0 mi WNW 28.8 mph 36.8 mph N/A   Light Freezing Rain
1:55 PM 26.6 °F 10.8 °F 19.4 °F 74% 29.91 in 4.0 mi West 27.6 mph 39.1 mph N/A   Light Freezing Rain
2:15 PM 26.6 °F 11.1 °F 19.4 °F 74% 29.93 in 6.0 mi WNW 26.5 mph 35.7 mph N/A   Haze
2:35 PM 26.6 °F 12.7 °F 19.4 °F 74% 29.92 in 6.0 mi WNW 20.7 mph 35.7 mph N/A Rain Light Freezing Rain
2:55 PM 26.6 °F 10.3 °F 19.4 °F 74% 29.93 in 6.0 mi WNW 29.9 mph 38.0 mph N/A   Haze
3:15 PM 26.6 °F 12.7 °F 19.4 °F 74% 29.94 in 10.0 mi WNW 20.7 mph 32.2 mph N/A   Overcast
3:35 PM 24.8 °F 9.0 °F 17.6 °F 74% 29.95 in 10.0 mi WNW 25.3 mph 33.4 mph N/A   Overcast
3:55 PM 24.8 °F 9.3 °F 17.6 °F 74% 29.96 in 10.0 mi WNW 24.2 mph 35.7 mph N/A   Overcast
4:55 PM 24.8 °F 9.3 °F 15.8 °F 69% 29.98 in 10.0 mi WNW 24.2 mph 33.4 mph N/A   Overcast
5:15 PM 23.0 °F 8.0 °F 15.8 °F 74% 29.99 in 10.0 mi NW 20.7 mph 29.9 mph N/A   Overcast
5:35 PM 23.0 °F 7.6 °F 15.8 °F 74% 29.99 in 9.0 mi WNW 21.9 mph 33.4 mph N/A   Overcast
5:55 PM 23.0 °F 7.2 °F 15.8 °F 74% 30.00 in 10.0 mi WNW 23.0 mph 32.2 mph N/A   Overcast
6:15 PM 23.0 °F 10.1 °F 15.8 °F 74% 30.02 in 10.0 mi WNW 15.0 mph 25.3 mph N/A   Overcast
6:35 PM 23.0 °F 8.3 °F 17.6 °F 80% 30.02 in 10.0 mi WNW 19.6 mph - N/A   Overcast
6:55 PM 23.0 °F 9.2 °F 17.6 °F 80% 30.02 in 10.0 mi WNW 17.3 mph - N/A   Overcast
7:15 PM 23.0 °F 8.3 °F 15.8 °F 74% 30.03 in 10.0 mi WNW 19.6 mph 26.5 mph N/A   Overcast
7:35 PM 23.0 °F 7.2 °F 15.8 °F 74% 30.03 in 9.0 mi WNW 23.0 mph - N/A   Light Freezing Rain
7:55 PM 23.0 °F 6.9 °F 15.8 °F 74% 30.04 in 10.0 mi WNW 24.2 mph 29.9 mph N/A   Overcast
8:15 PM 23.0 °F 9.2 °F 15.8 °F 74% 30.04 in 10.0 mi WNW 17.3 mph 23.0 mph N/A   Overcast
8:35 PM 23.0 °F 10.1 °F 15.8 °F 74% 30.04 in 10.0 mi WNW 15.0 mph 25.3 mph N/A   Overcast
8:55 PM 23.0 °F 9.6 °F 15.8 °F 74% 30.04 in 10.0 mi WNW 16.1 mph 23.0 mph N/A   Overcast
9:15 PM 23.0 °F 11.7 °F 17.6 °F 80% 30.05 in 10.0 mi WNW 11.5 mph 18.4 mph N/A   Overcast
9:35 PM 23.0 °F 10.6 °F 17.6 °F 80% 30.04 in 10.0 mi WNW 13.8 mph - N/A   Overcast
9:55 PM 23.0 °F 10.6 °F 15.8 °F 74% 30.05 in 10.0 mi West 13.8 mph 20.7 mph N/A   Overcast
10:15 PM 23.0 °F 11.7 °F 15.8 °F 74% 30.05 in 10.0 mi WNW 11.5 mph - N/A   Overcast
10:35 PM 23.0 °F 10.6 °F 15.8 °F 74% 30.06 in 10.0 mi WNW 13.8 mph - N/A   Overcast
10:55 PM 21.2 °F 9.5 °F 15.8 °F 80% 30.06 in 10.0 mi NW 11.5 mph - N/A   Overcast
11:15 PM 23.0 °F 12.4 °F 15.8 °F 74% 30.06 in 10.0 mi WNW 10.4 mph - N/A   Overcast
11:35 PM 23.0 °F 13.1 °F 15.8 °F 74% 30.06 in 10.0 mi WNW 9.2 mph 16.1 mph N/A   Overcast
11:55 PM 21.2 °F 9.5 °F 17.6 °F 86% 30.06 in 5.0 mi WNW 11.5 mph - N/A   Haze